Weather History for KLOR - October, 2012

Change the Weather History Date:

Thursday, October 4, 2012

  Actual Average (KDHN) Record (KDHN)
Temperature  
Mean Temperature 73 °F 71 °F  
Max Temperature 84 °F 83 °F - ()
Min Temperature 62 °F 60 °F - ()
Degree Days  
Heating Degree Days 0 0  
Month to date heating degree days 0  
Since 1 July heating degree days 2  
Cooling Degree Days 8 7  
Month to date cooling degree days 29  
Year to date cooling degree days 2257  
Growing Degree Days 23 (Base 50)    
Moisture  
Dew Point 63 °F    
Average Humidity 83    
Maximum Humidity 96    
Minimum Humidity 49    
Precipitation  
Precipitation 0.01 in 0.11 in - ()
Month to date precipitation 0.40  
Year to date precipitation 42.38  
Sea Level Pressure  
Sea Level Pressure 30.18 in    
Wind  
Wind Speed 2 mph (NNE)    
Max Wind Speed 8 mph    
Max Gust Speed -    
Visibility 6 miles    
Events Fog    
T = Trace of Precipitation, MM = Missing Value Source: NWS Daily Summary

Daily Weather History Graph

Daily Weather History Graph

Search for Another Location

Airport or City:

Trip Planner

Search our weather history database for the weather conditions in past years. The results will help you decide how hot, cold, wet, or windy it might be!

Date:

Astronomy

Oct. 04, 2012 Rise Set
Actual Time 6:38 AM CDT 6:23 PM CDT
Civil Twilight 6:14 AM CDT 6:47 PM CDT
Nautical Twilight 5:46 AM CDT 7:15 PM CDT
Astronomical Twilight 5:18 AM CDT 7:44 PM CDT
Moon 9:16 PM CDT (10/4) 10:38 AM CDT (10/4)
Length of Visible Light 12h 33m
Length of Day
11h 44m
Waning Gibbous, 82% of the Moon is Illuminated
Oct 4
Waning Gibbous
Oct 8
Last Quarter
Oct 15
New
Oct 21
First Quarter
Oct 29
Full

Hourly Weather History & Observations

Time (CDT) Temp. Heat Index Dew Point Humidity Pressure Visibility Wind Dir Wind Speed Gust Speed Precip Events Conditions
12:53 AM 64.0 °F - 62.1 °F 93% 30.15 in 8.0 mi Calm Calm - N/A   Scattered Clouds
1:03 AM 64.4 °F - 62.6 °F 94% 30.16 in 7.0 mi Calm Calm - N/A   Mostly Cloudy
1:40 AM 64.4 °F - 62.6 °F 94% 30.16 in 8.0 mi North 3.5 mph - N/A   Scattered Clouds
1:53 AM 64.0 °F - 62.1 °F 93% 30.16 in 8.0 mi Calm Calm - N/A   Partly Cloudy
2:06 AM 64.4 °F - 62.6 °F 94% 30.17 in 7.0 mi Calm Calm - N/A   Mostly Cloudy
2:53 AM 64.0 °F - 61.0 °F 90% 30.16 in 6.0 mi Calm Calm - N/A   Partly Cloudy
3:16 AM 62.6 °F - 60.8 °F 94% 30.17 in 5.0 mi Calm Calm - N/A   Scattered Clouds
3:25 AM 64.4 °F - 60.8 °F 88% 30.17 in 5.0 mi NNE 3.5 mph - N/A   Mostly Cloudy
3:33 AM 64.4 °F - 62.6 °F 94% 30.17 in 4.0 mi Calm Calm - N/A   Mostly Cloudy
3:53 AM 64.9 °F - 63.0 °F 93% 30.17 in 3.0 mi ENE 3.5 mph - N/A   Overcast
4:01 AM 64.4 °F - 62.6 °F 94% 30.18 in 2.0 mi Calm Calm - N/A   Overcast
4:10 AM 64.4 °F - 62.6 °F 94% 30.18 in 1.2 mi Calm Calm - N/A   Overcast
4:21 AM 64.4 °F - 62.6 °F 94% 30.18 in 0.8 mi Calm Calm - N/A   Overcast
4:33 AM 64.4 °F - 62.6 °F 94% 30.19 in 1.0 mi Calm Calm - N/A   Overcast
4:42 AM 64.4 °F - 62.6 °F 94% 30.19 in 0.5 mi Calm Calm - N/A Fog Fog
4:53 AM 64.0 °F - 63.0 °F 96% 30.19 in 0.5 mi Calm Calm - N/A Fog Fog
5:53 AM 64.0 °F - 63.0 °F 96% 30.20 in 0.2 mi NE 3.5 mph - N/A Fog Fog
6:53 AM 64.0 °F - 63.0 °F 96% 30.22 in 0.2 mi Calm Calm - 0.01 in Fog Fog
7:53 AM 64.0 °F - 63.0 °F 96% 30.22 in 0.2 mi Calm Calm - N/A Fog Fog
8:58 AM 66.2 °F - 64.4 °F 94% 30.25 in 3.0 mi Variable 3.5 mph - N/A   Overcast
9:37 AM 69.8 °F - 64.4 °F 83% 30.24 in 10.0 mi North 5.8 mph - N/A   Partly Cloudy
9:53 AM 73.9 °F - 66.0 °F 76% 30.23 in 10.0 mi NE 5.8 mph - N/A   Clear
10:53 AM 78.1 °F - 66.0 °F 66% 30.22 in 10.0 mi Variable 6.9 mph - N/A   Clear
11:53 AM 81.0 °F 82.7 °F 64.9 °F 58% 30.21 in 10.0 mi ENE 6.9 mph - N/A   Clear
12:53 PM 84.0 °F 85.4 °F 64.0 °F 51% 30.19 in 10.0 mi North 8.1 mph - N/A   Clear
1:53 PM 82.9 °F 84.0 °F 63.0 °F 51% 30.17 in 10.0 mi North 5.8 mph - N/A   Clear
2:53 PM 84.0 °F 84.9 °F 63.0 °F 49% 30.16 in 10.0 mi NNE 3.5 mph - N/A   Clear
3:53 PM 84.0 °F 84.9 °F 63.0 °F 49% 30.15 in 10.0 mi NNE 3.5 mph - N/A   Clear
4:16 PM 82.4 °F 83.4 °F 62.6 °F 51% 30.16 in 10.0 mi NNE 5.8 mph - N/A   Partly Cloudy
4:53 PM 81.0 °F 82.2 °F 63.0 °F 54% 30.14 in 10.0 mi NNE 4.6 mph - N/A   Clear
5:53 PM 75.9 °F - 64.9 °F 69% 30.14 in 10.0 mi NNE 3.5 mph - N/A   Clear
6:53 PM 70.0 °F - 64.9 °F 84% 30.15 in 10.0 mi NNE 3.5 mph - N/A   Clear
7:53 PM 68.0 °F - 64.9 °F 90% 30.16 in 10.0 mi Calm Calm - N/A   Clear
8:53 PM 66.9 °F - 64.9 °F 93% 30.18 in 8.0 mi Calm Calm - N/A   Clear
9:53 PM 66.0 °F - 64.0 °F 93% 30.19 in 6.0 mi Calm Calm - N/A   Scattered Clouds
10:53 PM 64.9 °F - 63.0 °F 93% 30.18 in 7.0 mi Calm Calm - N/A   Clear
11:53 PM 64.9 °F - 63.0 °F 93% 30.16 in 6.0 mi Calm Calm - N/A   Clear